This demonstration page uses our WeatherBlox Daily Observations layout. Learn more.

Hourly Observations for November 5, 2019

Temp ( °F °C ) Dew Point ( °F °C ) Humidity (%) Winds ( mph kmh ) Pressure ( in mb ) Visibility ( mi km ) Precip ( " mm )
12:15 am 00:15 Cloudy 38 3.1 37 2.5 96 96 Calm 30.33 1027 10 16.0934 0 0
12:35 am 00:35 Cloudy 38 3.1 36 2.4 95 95 Calm 30.33 1027 10 16.0934 0 0
12:55 am 00:55 Cloudy 38 3.1 37 2.5 96 96 Calm 30.32 1027 10 16.0934 0 0
1:15 am 01:15 Cloudy 37 3 37 2.5 97 97 WNW 3 6 30.33 1027 10 16.0934 0 0
1:35 am 01:35 Cloudy 38 3.2 36 2.3 94 94 Calm 30.32 1027 10 16.0934 0 0
1:55 am 01:55 Cloudy 38 3.1 36 2.2 94 94 Calm 30.32 1027 10 16.0934 0 0
2:15 am 02:15 Cloudy 37 3 36 2.3 95 95 Calm 30.32 1027 10 16.0934 0 0
2:35 am 02:35 Cloudy 38 3.2 36 2.4 95 95 Calm 30.32 1027 10 16.0934 0 0
2:55 am 02:55 Cloudy 38 3.1 36 2.4 95 95 Calm 30.32 1027 10 16.0934 0 0
3:15 am 03:15 Cloudy 37 3 36 2.2 95 95 Calm 30.32 1027 10 16.0934 0 0
3:35 am 03:35 Cloudy 38 3.1 37 2.5 96 96 Calm 30.32 1027 10 16.0934 0 0
3:55 am 03:55 Cloudy 38 3.2 37 2.6 96 96 Calm 30.32 1027 10 16.0934 0 0
4:15 am 04:15 Cloudy 38 3.2 37 2.8 97 97 SE 3 6 30.31 1026 10 16.0934 0 0
4:35 am 04:35 Cloudy 38 3.1 37 2.9 99 99 Calm 30.32 1027 10 16.0934 0 0
4:55 am 04:55 Cloudy 38 3.2 37 2.8 97 97 Calm 30.33 1027 10 16.0934 0 0
5:15 am 05:15 Cloudy 38 3.5 36 2 90 90 SSW 3 6 30.32 1027 10 16.0934 0 0
5:35 am 05:35 Cloudy 38 3.6 36 2.1 90 90 S 5 7 30.32 1027 10 16.0934 0 0
5:55 am 05:55 Cloudy 38 3.5 36 2.1 91 91 S 5 7 30.31 1026 10 16.0934 0 0
6:15 am 06:15 Cloudy 38 3.5 36 2.2 91 91 S 3 6 30.31 1026 10 16.0934 0 0
6:35 am 06:35 Cloudy 38 3.5 36 2 90 90 S 5 7 30.32 1027 10 16.0934 0 0
6:55 am 06:55 Cloudy 38 3.5 36 2.2 91 91 S 3 6 30.32 1027 10 16.0934 0 0
7:15 am 07:15 Cloudy 38 3.5 36 2.4 93 93 SSW 5 7 30.32 1027 10 16.0934 0 0
7:35 am 07:35 Cloudy 39 3.7 37 2.5 92 92 SSW 6 9 30.33 1027 10 16.0934 0 0
7:55 am 07:55 Cloudy 39 3.8 37 2.5 91 91 SSW 7 11 30.33 1027 10 16.0934 0 0
8:15 am 08:15 Cloudy 39 4 37 2.6 91 91 SSW 5 7 30.34 1027 10 16.0934 0 0
8:35 am 08:35 Cloudy 40 4.3 37 2.8 90 90 SW 7 11 30.33 1027 10 16.0934 0 0
8:55 am 08:55 Cloudy 40 4.5 37 2.8 89 89 SW 9 15 30.33 1027 10 16.0934 0 0
9:15 am 09:15 Cloudy 40 4.7 37 3 89 89 SSW 14 22 30.33 1027 10 16.0934 0 0
9:35 am 09:35 Cloudy 41 5 37 3 87 87 SSW 9 15 30.33 1027 10 16.0934 0 0
9:55 am 09:55 Cloudy 41 5.1 38 3.2 88 88 SW 10 17 30.33 1027 10 16.0934 0 0
10:15 am 10:15 Cloudy 41 5.1 38 3.1 87 87 S 13 20 30.32 1027 10 16.0934 0 0
10:35 am 10:35 Cloudy 42 5.5 38 3.4 87 87 SSW 12 19 30.31 1027 10 16.0934 0 0
10:55 am 10:55 Cloudy 43 5.9 39 3.7 86 86 SSW 20 31 30.29 1026 10 16.0934 0 0
11:15 am 11:15 Cloudy 45 7 39 4.1 82 82 SSW 15 24 30.28 1025 10 16.0934 0 0
11:35 am 11:35 Cloudy 46 7.7 40 4.3 79 79 SSW 16 26 30.26 1025 10 16.0934 0 0
11:55 am 11:55 Cloudy 47 8.2 39 4 75 75 SSW 18 30 30.25 1024 10 16.0934 0 0
12:15 pm 12:15 Partly Cloudy 48 9.1 39 3.9 70 70 SSW 20 31 30.23 1024 10 16.0934 0 0
12:35 pm 12:35 Partly Cloudy 51 10.3 40 4.5 68 68 SSW 20 31 30.2 1023 10 16.0934 0 0
12:55 pm 12:55 Sunny 51 10.6 40 4.2 65 65 SSW 18 30 30.19 1022 10 16.0934 0 0
1:15 pm 13:15 Sunny 52 11 39 4 62 62 SW 18 30 30.17 1022 10 16.0934 0 0
1:35 pm 13:35 Sunny 52 11 39 3.8 61 61 SSW 23 37 30.15 1021 10 16.0934 0 0
1:55 pm 13:55 Sunny 53 11.5 39 3.7 59 59 SSW 21 33 30.14 1021 10 16.0934 0 0
2:15 pm 14:15 Sunny 53 11.8 39 3.7 58 58 SSW 17 28 30.14 1021 10 16.0934 0 0
2:35 pm 14:35 Sunny 54 12 38 3.5 56 56 SW 16 26 30.13 1020 10 16.0934 0 0
2:55 pm 14:55 Sunny 54 12.1 38 3.3 55 55 SW 14 22 30.12 1020 10 16.0934 0 0
3:15 pm 15:15 Sunny 55 12.5 38 3.2 53 53 SSW 15 24 30.12 1020 10 16.0934 0 0
3:35 pm 15:35 Sunny 54 12.2 38 3.1 54 54 SSW 17 28 30.11 1020 10 16.0934 0 0
3:55 pm 15:55 Sunny 56 13.3 38 3.2 51 51 SSW 20 31 30.1 1019 10 16.0934 0 0
4:15 pm 16:15 Sunny 55 13 38 3.2 52 52 SSW 16 26 30.1 1019 10 16.0934 0 0
4:35 pm 16:35 Sunny 55 12.7 38 3.1 52 52 SSW 9 15 30.11 1020 10 16.0934 0 0
4:55 pm 16:55 Sunny 55 12.6 37 3 52 52 SSW 9 15 30.11 1020 10 16.0934 0 0
5:15 pm 17:15 Sunny 53 11.9 37 3 55 55 S 9 15 30.11 1020 10 16.0934 0 0
5:35 pm 17:35 Clear 52 11.1 37 2.9 57 57 S 10 17 30.1 1019 10 16.0934 0 0
5:55 pm 17:55 Clear 50 10 37 2.5 60 60 S 9 15 30.12 1020 10 16.0934 0 0
6:15 pm 18:15 Clear 47 8.6 36 2.2 64 64 S 9 15 30.13 1020 10 16.0934 0 0
6:35 pm 18:35 Clear 47 8.1 36 2.1 66 66 S 9 15 30.14 1021 10 16.0934 0 0
6:55 pm 18:55 Clear 47 8.4 36 2 64 64 S 9 15 30.15 1021 10 16.0934 0 0
7:15 pm 19:15 Clear 46 7.8 36 2.1 68 68 S 9 15 30.15 1021 10 16.0934 0 0
7:35 pm 19:35 Clear 46 7.8 36 2 67 67 S 9 15 30.15 1021 10 16.0934 0 0
7:55 pm 19:55 Clear 45 7.2 35 1.9 69 69 S 9 15 30.16 1021 10 16.0934 0 0
8:15 pm 20:15 Clear 44 6.9 35 1.7 70 70 SSW 8 13 30.16 1021 10 16.0934 0 0
8:35 pm 20:35 Clear 44 6.7 35 1.7 71 71 SSW 9 15 30.16 1021 10 16.0934 0 0
8:55 pm 20:55 Clear 43 6.2 35 1.7 73 73 SSW 8 13 30.17 1022 10 16.0934 0 0
9:15 pm 21:15 Clear 42 5.6 35 1.5 75 75 SSW 8 13 30.18 1022 10 16.0934 0 0
9:35 pm 21:35 Clear 41 5.2 34 1.3 76 76 SSW 8 13 30.19 1022 10 16.0934 0 0
9:55 pm 21:55 Clear 40 4.6 34 1 78 78 SSW 8 13 30.2 1023 10 16.0934 0 0
10:15 pm 22:15 Clear 39 4.1 34 1 80 80 SSW 8 13 30.21 1023 10 16.0934 0 0
10:35 pm 22:35 Clear 40 4.6 34 0.9 77 77 SSW 7 11 30.2 1023 10 16.0934 0 0
10:55 pm 22:55 Clear 40 4.2 33 0.6 78 78 SSW 8 13 30.21 1023 10 16.0934 0 0
11:15 pm 23:15 Clear 40 4.6 33 0.5 75 75 SW 8 13 30.19 1022 10 16.0934 0 0
11:35 pm 23:35 Clear 41 4.8 33 0.3 73 73 SW 9 15 30.19 1022 10 16.0934 0 0
11:55 pm 23:55 Clear 40 4.4 32 0 73 73 SW 7 11 30.19 1022 10 16.0934 0 0

Powered by AerisWeather